Shi Jian 6/2A

operational
NORAD ID: 29506 Int'l Des: 2006-046 Owner: CASC Country: CN
LEOCIRCULARRETROGRADESSO

关于 Shi Jian 6/2A

正在加载描述...

实时位置

正在加载3D地球...

即将过境

高度历史

Altitude vs Time

uPlot chart will show altitude changes over time

两行轨道根数

1 29506U 06046B 26063.16485497 .00003342 00000-0 26626-3 0 9996
2 29506 97.7049 92.9444 0014171 60.8275 299.4365 15.00967169 54982
Epoch: Mar 4, 2026 • Age: 18 hours

当前状态

高度 600.6 km
速度 7.55 km/s
星下点 -75.66°S, 170.74°E
发射日期 Oct 23, 2006
运行时间 19.3 years
类型 other

技术详情

分类 Payload
质量 350.00 kg
干质量 350.00 kg
总质量 350.00 kg
长度 1.00 m
直径 1.00 m
跨度 4.00 m
形状 Box + 2 Pan
制造商 DFHZ
平台类型 CAST-968
阶段状态 In Orbit
所有者/国家 CASC/CN

大型星座

Loading constellations...